Time,TemperatureF,DewpointF,PressureIn,WindDirection,WindDirectionDegrees,WindSpeedMPH,WindSpeedGustMPH,Humidity,HourlyPrecipIn,Conditions,Clouds,dailyrainin,SoftwareType,DateUTC
2013-08-12 00:02:00,55.0,21.6,30.15,SW,235,0.0,0.0,27,0.00,,,0.00,WeatherDisplay:10.37,2013-08-12 07:02:00,
2013-08-12 00:07:00,54.9,21.5,30.15,SW,235,0.0,0.0,27,0.00,,,0.00,WeatherDisplay:10.37,2013-08-12 07:07:00,
2013-08-12 00:12:00,54.7,21.3,30.15,SW,235,0.0,0.0,27,0.00,,,0.00,WeatherDisplay:10.37,2013-08-12 07:12:00,
2013-08-12 00:22:00,54.7,21.3,30.15,SW,235,0.0,0.0,27,0.00,,,0.00,WeatherDisplay:10.37,2013-08-12 07:22:00,
2013-08-12 00:27:00,54.5,21.2,30.15,SW,235,0.0,0.0,27,0.00,,,0.00,WeatherDisplay:10.37,2013-08-12 07:27:00,
2013-08-12 00:32:00,54.5,22.0,30.15,SW,235,0.0,0.0,28,0.00,,,0.00,WeatherDisplay:10.37,2013-08-12 07:32:00,
2013-08-12 00:37:00,54.3,21.9,30.15,SW,235,0.0,0.0,28,0.00,,,0.00,WeatherDisplay:10.37,2013-08-12 07:37:00,
2013-08-12 00:42:00,54.1,20.8,30.15,SW,235,0.0,0.0,27,0.00,,,0.00,WeatherDisplay:10.37,2013-08-12 07:42:00,
2013-08-12 00:47:00,53.9,20.6,30.15,SW,235,0.0,0.0,27,0.00,,,0.00,WeatherDisplay:10.37,2013-08-12 07:47:00,
2013-08-12 00:52:00,53.7,21.3,30.15,SW,235,0.0,0.0,28,0.00,,,0.00,WeatherDisplay:10.37,2013-08-12 07:52:00,
2013-08-12 01:02:00,53.5,21.2,30.15,SW,235,0.0,0.0,28,0.00,,,0.00,WeatherDisplay:10.37,2013-08-12 08:02:00,
2013-08-12 01:12:00,53.2,21.8,30.15,SW,235,0.0,0.0,29,0.00,,,0.00,WeatherDisplay:10.37,2013-08-12 08:12:00,
2013-08-12 01:17:00,53.2,21.8,30.15,SW,235,0.0,0.0,29,0.00,,,0.00,WeatherDisplay:10.37,2013-08-12 08:17:00,
2013-08-12 01:22:00,53.1,21.6,30.15,SW,235,0.0,0.0,29,0.00,,,0.00,WeatherDisplay:10.37,2013-08-12 08:22:00,
2013-08-12 01:27:00,53.1,21.6,30.15,SW,235,0.0,0.0,29,0.00,,,0.00,WeatherDisplay:10.37,2013-08-12 08:27:00,
2013-08-12 01:32:00,53.1,21.6,30.15,SW,235,0.0,0.0,29,0.00,,,0.00,WeatherDisplay:10.37,2013-08-12 08:32:00,
2013-08-12 01:37:00,53.1,21.6,30.15,SW,235,0.0,0.0,29,0.00,,,0.00,WeatherDisplay:10.37,2013-08-12 08:37:00,
2013-08-12 01:42:00,53.1,21.6,30.15,SW,235,0.0,0.0,29,0.00,,,0.00,WeatherDisplay:10.37,2013-08-12 08:42:00,
2013-08-12 01:47:00,53.0,21.5,30.15,SW,235,0.0,0.0,29,0.00,,,0.00,WeatherDisplay:10.37,2013-08-12 08:47:00,
2013-08-12 01:52:00,52.5,21.1,30.15,SW,235,0.0,0.0,29,0.00,,,0.00,WeatherDisplay:10.37,2013-08-12 08:52:00,
2013-08-12 02:02:00,52.2,20.8,30.15,SW,235,0.0,0.0,29,0.00,,,0.00,WeatherDisplay:10.37,2013-08-12 09:02:00,
2013-08-12 02:07:00,52.2,20.8,30.15,SW,235,0.0,0.0,29,0.00,,,0.00,WeatherDisplay:10.37,2013-08-12 09:07:00,
2013-08-12 02:12:00,52.3,21.0,30.15,SW,235,0.0,0.0,29,0.00,,,0.00,WeatherDisplay:10.37,2013-08-12 09:12:00,
2013-08-12 02:17:00,52.3,20.9,30.15,SW,235,0.0,0.0,29,0.00,,,0.00,WeatherDisplay:10.37,2013-08-12 09:17:00,
2013-08-12 02:22:00,52.0,20.7,30.15,SW,235,0.0,0.0,29,0.00,,,0.00,WeatherDisplay:10.37,2013-08-12 09:22:00,
2013-08-12 02:27:00,51.8,20.5,30.15,SW,235,0.0,0.0,29,0.00,,,0.00,WeatherDisplay:10.37,2013-08-12 09:27:00,
2013-08-12 02:32:00,51.6,21.2,30.15,SW,235,0.0,0.0,30,0.00,,,0.00,WeatherDisplay:10.37,2013-08-12 09:32:00,
2013-08-12 02:42:00,51.6,21.2,30.15,SW,235,0.0,0.0,30,0.00,,,0.00,WeatherDisplay:10.37,2013-08-12 09:42:00,
2013-08-12 02:47:00,51.6,21.2,30.15,SW,235,0.0,0.0,30,0.00,,,0.00,WeatherDisplay:10.37,2013-08-12 09:47:00,
2013-08-12 02:52:00,51.6,21.2,30.15,SW,235,0.0,0.0,30,0.00,,,0.00,WeatherDisplay:10.37,2013-08-12 09:52:00,
2013-08-12 03:02:00,51.4,21.0,30.15,SW,235,0.0,0.0,30,0.00,,,0.00,WeatherDisplay:10.37,2013-08-12 10:02:00,
2013-08-12 03:07:00,51.4,21.0,30.15,SW,235,0.0,0.0,30,0.00,,,0.00,WeatherDisplay:10.37,2013-08-12 10:07:00,
2013-08-12 03:12:00,51.3,20.8,30.15,SW,235,0.0,0.0,30,0.00,,,0.00,WeatherDisplay:10.37,2013-08-12 10:12:00,
2013-08-12 03:22:00,51.3,21.6,30.15,SW,235,0.0,0.0,31,0.00,,,0.00,WeatherDisplay:10.37,2013-08-12 10:22:00,
2013-08-12 03:27:00,51.3,21.6,30.15,SW,235,0.0,0.0,31,0.00,,,0.00,WeatherDisplay:10.37,2013-08-12 10:27:00,
2013-08-12 03:32:00,51.1,21.5,30.15,SW,235,0.0,0.0,31,0.00,,,0.00,WeatherDisplay:10.37,2013-08-12 10:32:00,
2013-08-12 03:37:00,50.9,21.3,30.15,SW,235,0.0,0.0,31,0.00,,,0.00,WeatherDisplay:10.37,2013-08-12 10:37:00,
2013-08-12 03:42:00,50.9,22.1,30.15,SW,235,0.0,0.0,32,0.00,,,0.00,WeatherDisplay:10.37,2013-08-12 10:42:00,
2013-08-12 03:47:00,50.9,22.1,30.15,SW,235,0.0,0.0,32,0.00,,,0.00,WeatherDisplay:10.37,2013-08-12 10:47:00,
2013-08-12 03:52:00,50.9,22.1,30.15,SW,235,0.0,0.0,32,0.00,,,0.00,WeatherDisplay:10.37,2013-08-12 10:52:00,
2013-08-12 03:57:00,50.7,22.6,30.15,SW,235,0.0,0.0,33,0.00,,,0.00,WeatherDisplay:10.37,2013-08-12 10:57:00,
2013-08-12 04:07:00,50.7,25.4,30.15,SW,235,0.0,0.0,37,0.00,,,0.00,WeatherDisplay:10.37,2013-08-12 11:07:00,
2013-08-12 04:12:00,50.5,27.1,30.15,SW,235,0.0,0.0,40,0.00,,,0.00,WeatherDisplay:10.37,2013-08-12 11:12:00,
2013-08-12 04:17:00,50.4,28.1,30.15,SW,235,0.0,0.0,42,0.00,,,0.00,WeatherDisplay:10.37,2013-08-12 11:17:00,
2013-08-12 04:22:00,50.2,27.9,30.15,SW,235,0.0,0.0,42,0.00,,,0.00,WeatherDisplay:10.37,2013-08-12 11:22:00,
2013-08-12 04:27:00,50.2,26.8,30.12,SW,235,0.0,0.0,40,0.00,,,0.00,WeatherDisplay:10.37,2013-08-12 11:27:00,
2013-08-12 04:32:00,50.4,26.3,30.12,SW,235,0.0,0.0,39,0.00,,,0.00,WeatherDisplay:10.37,2013-08-12 11:32:00,
2013-08-12 04:37:00,50.2,26.2,30.12,SW,235,0.0,0.0,39,0.00,,,0.00,WeatherDisplay:10.37,2013-08-12 11:37:00,
2013-08-12 04:47:00,50.0,25.4,30.15,SW,235,0.0,0.0,38,0.00,,,0.00,WeatherDisplay:10.37,2013-08-12 11:47:00,
2013-08-12 04:52:00,50.0,25.4,30.15,SW,235,0.0,0.0,38,0.00,,,0.00,WeatherDisplay:10.37,2013-08-12 11:52:00,
2013-08-12 04:57:00,50.0,25.4,30.15,SW,235,0.0,0.0,38,0.00,,,0.00,WeatherDisplay:10.37,2013-08-12 11:57:00,
2013-08-12 05:02:00,50.0,25.4,30.15,SW,235,0.0,0.0,38,0.00,,,0.00,WeatherDisplay:10.37,2013-08-12 12:02:00,
2013-08-12 05:07:00,50.0,25.4,30.15,SW,235,0.0,0.0,38,0.00,,,0.00,WeatherDisplay:10.37,2013-08-12 12:07:00,
2013-08-12 05:12:00,49.8,25.2,30.15,SW,235,0.0,0.0,38,0.00,,,0.00,WeatherDisplay:10.37,2013-08-12 12:12:00,
2013-08-12 05:17:00,49.6,25.0,30.15,SW,235,0.0,0.0,38,0.00,,,0.00,WeatherDisplay:10.37,2013-08-12 12:17:00,
2013-08-12 05:22:00,49.5,24.9,30.15,SW,235,0.0,0.0,38,0.00,,,0.00,WeatherDisplay:10.37,2013-08-12 12:22:00,
2013-08-12 05:27:00,49.5,24.9,30.15,SW,235,0.0,0.0,38,0.00,,,0.00,WeatherDisplay:10.37,2013-08-12 12:27:00,
2013-08-12 05:32:00,49.5,24.9,30.15,SW,235,0.0,0.0,38,0.00,,,0.00,WeatherDisplay:10.37,2013-08-12 12:32:00,
2013-08-12 05:42:00,49.6,25.0,30.15,SW,235,0.0,0.0,38,0.00,,,0.00,WeatherDisplay:10.37,2013-08-12 12:42:00,
2013-08-12 05:52:00,50.0,25.4,30.15,SW,235,0.0,0.0,38,0.00,,,0.00,WeatherDisplay:10.37,2013-08-12 12:52:00,
2013-08-12 05:57:00,50.0,25.4,30.15,SW,235,0.0,0.0,38,0.00,,,0.00,WeatherDisplay:10.37,2013-08-12 12:57:00,
2013-08-12 06:02:00,49.8,25.2,30.15,SW,235,0.0,0.0,38,0.00,,,0.00,WeatherDisplay:10.37,2013-08-12 13:02:00,
2013-08-12 06:07:00,49.5,26.1,30.15,SW,235,0.0,0.0,40,0.00,,,0.00,WeatherDisplay:10.37,2013-08-12 13:07:00,
2013-08-12 06:12:00,49.3,27.7,30.15,SW,235,0.0,0.0,43,0.00,,,0.00,WeatherDisplay:10.37,2013-08-12 13:12:00,
2013-08-12 06:22:00,49.1,26.4,30.15,SW,235,0.0,0.0,41,0.00,,,0.00,WeatherDisplay:10.37,2013-08-12 13:22:00,
2013-08-12 06:27:00,49.1,25.8,30.15,SW,235,0.0,0.0,40,0.00,,,0.00,WeatherDisplay:10.37,2013-08-12 13:27:00,
2013-08-12 06:32:00,49.1,26.4,30.15,SW,235,0.0,0.0,41,0.00,,,0.00,WeatherDisplay:10.37,2013-08-12 13:32:00,
2013-08-12 06:37:00,49.1,26.4,30.15,SW,235,0.0,0.0,41,0.00,,,0.00,WeatherDisplay:10.37,2013-08-12 13:37:00,
2013-08-12 06:42:00,49.1,27.0,30.15,SW,235,0.0,0.0,42,0.00,,,0.00,WeatherDisplay:10.37,2013-08-12 13:42:00,
2013-08-12 06:47:00,49.5,26.7,30.15,SW,235,0.0,0.0,41,0.00,,,0.00,WeatherDisplay:10.37,2013-08-12 13:47:00,
2013-08-12 06:52:00,49.8,26.4,30.15,SW,235,0.0,0.0,40,0.00,,,0.00,WeatherDisplay:10.37,2013-08-12 13:52:00,
2013-08-12 06:57:00,50.2,26.8,30.15,SW,235,0.0,0.0,40,0.00,,,0.00,WeatherDisplay:10.37,2013-08-12 13:57:00,
2013-08-12 07:02:00,50.4,27.0,30.15,SW,235,0.0,0.0,40,0.00,,,0.00,WeatherDisplay:10.37,2013-08-12 14:02:00,
2013-08-12 07:07:00,50.9,27.4,30.15,SW,235,0.0,0.0,40,0.00,,,0.00,WeatherDisplay:10.37,2013-08-12 14:07:00,
2013-08-12 07:12:00,51.4,27.2,30.15,SW,235,0.0,0.0,39,0.00,,,0.00,WeatherDisplay:10.37,2013-08-12 14:12:00,
2013-08-12 07:17:00,51.6,27.4,30.15,SW,235,0.0,0.0,39,0.00,,,0.00,WeatherDisplay:10.37,2013-08-12 14:17:00,
2013-08-12 07:22:00,52.0,27.2,30.15,SW,235,0.0,0.0,38,0.00,,,0.00,WeatherDisplay:10.37,2013-08-12 14:22:00,
2013-08-12 07:32:00,53.1,28.1,30.15,SW,235,0.0,0.0,38,0.00,,,0.00,WeatherDisplay:10.37,2013-08-12 14:32:00,
2013-08-12 07:37:00,53.6,28.0,30.15,SW,235,0.0,0.0,37,0.00,,,0.00,WeatherDisplay:10.37,2013-08-12 14:37:00,
2013-08-12 07:42:00,54.3,28.6,30.15,SW,235,0.0,0.0,37,0.00,,,0.00,WeatherDisplay:10.37,2013-08-12 14:42:00,
2013-08-12 07:52:00,56.3,29.7,30.15,SW,235,0.0,0.0,36,0.00,,,0.00,WeatherDisplay:10.37,2013-08-12 14:52:00,
2013-08-12 07:57:00,57.3,30.6,30.15,SW,235,0.0,0.0,36,0.00,,,0.00,WeatherDisplay:10.37,2013-08-12 14:57:00,
2013-08-12 08:02:00,58.1,31.3,30.15,SW,235,0.0,0.0,36,0.00,,,0.00,WeatherDisplay:10.37,2013-08-12 15:02:00,
2013-08-12 08:07:00,58.7,31.1,30.15,SW,235,0.0,0.0,35,0.00,,,0.00,WeatherDisplay:10.37,2013-08-12 15:07:00,
2013-08-12 08:12:00,59.5,31.8,30.15,SW,235,0.0,0.0,35,0.00,,,0.00,WeatherDisplay:10.37,2013-08-12 15:12:00,
2013-08-12 08:17:00,60.2,32.5,30.15,SW,235,0.0,0.0,35,0.00,,,0.00,WeatherDisplay:10.37,2013-08-12 15:17:00,
2013-08-12 08:22:00,61.0,32.4,30.15,SW,235,0.0,0.0,34,0.00,,,0.00,WeatherDisplay:10.37,2013-08-12 15:22:00,
2013-08-12 08:27:00,61.7,33.0,30.17,SW,235,0.0,0.0,34,0.00,,,0.00,WeatherDisplay:10.37,2013-08-12 15:27:00,
2013-08-12 08:32:00,62.5,33.7,30.18,SW,235,0.0,0.0,34,0.00,,,0.00,WeatherDisplay:10.37,2013-08-12 15:32:00,
2013-08-12 08:37:00,63.2,33.6,30.18,SW,235,0.0,0.0,33,0.00,,,0.00,WeatherDisplay:10.37,2013-08-12 15:37:00,
2013-08-12 08:42:00,63.9,34.2,30.18,SW,235,0.0,0.0,33,0.00,,,0.00,WeatherDisplay:10.37,2013-08-12 15:42:00,
2013-08-12 08:47:00,64.5,32.4,30.18,SW,235,0.0,0.0,30,0.00,,,0.00,WeatherDisplay:10.37,2013-08-12 15:47:00,
2013-08-12 08:52:00,65.2,33.0,30.18,SW,235,0.0,0.0,30,0.00,,,0.00,WeatherDisplay:10.37,2013-08-12 15:52:00,
2013-08-12 08:57:00,65.9,31.8,30.18,SW,235,0.0,0.0,28,0.00,,,0.00,WeatherDisplay:10.37,2013-08-12 15:57:00,
2013-08-12 09:02:00,66.6,30.6,30.18,SW,235,0.0,0.0,26,0.00,,,0.00,WeatherDisplay:10.37,2013-08-12 16:02:00,
2013-08-12 09:07:00,67.3,32.2,30.18,SW,235,0.0,0.0,27,0.00,,,0.00,WeatherDisplay:10.37,2013-08-12 16:07:00,
2013-08-12 09:12:00,68.2,32.0,30.18,SW,235,0.0,0.0,26,0.00,,,0.00,WeatherDisplay:10.37,2013-08-12 16:12:00,
2013-08-12 09:17:00,69.1,31.8,30.18,SW,235,0.0,0.0,25,0.00,,,0.00,WeatherDisplay:10.37,2013-08-12 16:17:00,
2013-08-12 09:22:00,70.0,30.5,30.18,SW,235,0.0,0.0,23,0.00,,,0.00,WeatherDisplay:10.37,2013-08-12 16:22:00,
2013-08-12 09:27:00,70.3,30.8,30.18,WSW,241,0.0,4.0,23,0.00,,,0.00,WeatherDisplay:10.37,2013-08-12 16:27:00,
2013-08-12 09:32:00,70.7,31.1,30.18,WSW,238,2.0,4.0,23,0.00,,,0.00,WeatherDisplay:10.37,2013-08-12 16:32:00,
2013-08-12 09:37:00,71.1,31.4,30.18,WSW,240,2.0,3.0,23,0.00,,,0.00,WeatherDisplay:10.37,2013-08-12 16:37:00,
2013-08-12 09:42:00,71.5,30.7,30.18,SW,232,0.0,5.0,22,0.00,,,0.00,WeatherDisplay:10.37,2013-08-12 16:42:00,
2013-08-12 09:47:00,72.3,31.3,30.18,SW,228,2.0,4.0,22,0.00,,,0.00,WeatherDisplay:10.37,2013-08-12 16:47:00,
2013-08-12 09:52:00,72.7,31.6,30.18,SW,233,1.0,3.0,22,0.00,,,0.00,WeatherDisplay:10.37,2013-08-12 16:52:00,
2013-08-12 09:57:00,73.2,32.1,30.18,WSW,245,0.0,4.0,22,0.00,,,0.00,WeatherDisplay:10.37,2013-08-12 16:57:00,
2013-08-12 10:02:00,73.8,31.4,30.18,WSW,245,1.0,4.0,21,0.00,,,0.00,WeatherDisplay:10.37,2013-08-12 17:02:00,
2013-08-12 10:07:00,74.1,31.7,30.18,SW,223,0.0,3.0,21,0.00,,,0.00,WeatherDisplay:10.37,2013-08-12 17:07:00,
2013-08-12 10:12:00,74.7,32.2,30.18,SW,215,0.0,3.0,21,0.00,,,0.00,WeatherDisplay:10.37,2013-08-12 17:12:00,
2013-08-12 10:17:00,75.2,31.3,30.18,SW,228,2.0,6.0,20,0.00,,,0.00,WeatherDisplay:10.37,2013-08-12 17:17:00,
2013-08-12 10:22:00,75.4,31.5,30.18,SW,226,3.0,5.0,20,0.00,,,0.00,WeatherDisplay:10.37,2013-08-12 17:22:00,
2013-08-12 10:27:00,75.8,31.9,30.18,SW,216,3.0,4.0,20,0.00,,,0.00,WeatherDisplay:10.37,2013-08-12 17:27:00,
2013-08-12 10:32:00,76.1,32.1,30.18,SSW,203,2.0,4.0,20,0.00,,,0.00,WeatherDisplay:10.37,2013-08-12 17:32:00,
2013-08-12 10:37:00,76.5,32.4,30.18,SSW,204,2.0,4.0,20,0.00,,,0.00,WeatherDisplay:10.37,2013-08-12 17:37:00,
2013-08-12 10:42:00,76.6,32.5,30.18,SSW,212,3.0,5.0,20,0.00,,,0.00,WeatherDisplay:10.37,2013-08-12 17:42:00,
2013-08-12 10:47:00,76.8,32.7,30.18,SW,214,2.0,4.0,20,0.00,,,0.00,WeatherDisplay:10.37,2013-08-12 17:47:00,
2013-08-12 10:52:00,77.0,32.8,30.18,SW,224,5.0,6.0,20,0.00,,,0.00,WeatherDisplay:10.37,2013-08-12 17:52:00,
2013-08-12 10:57:00,77.0,30.2,30.18,SW,218,3.0,4.0,18,0.00,,,0.00,WeatherDisplay:10.37,2013-08-12 17:57:00,
2013-08-12 11:02:00,77.1,32.9,30.18,SW,217,3.0,8.0,20,0.00,,,0.00,WeatherDisplay:10.37,2013-08-12 18:02:00,
2013-08-12 11:07:00,77.0,32.8,30.18,SW,225,5.0,6.0,20,0.00,,,0.00,WeatherDisplay:10.37,2013-08-12 18:07:00,
2013-08-12 11:12:00,77.2,33.0,30.18,SW,229,0.0,6.0,20,0.00,,,0.00,WeatherDisplay:10.37,2013-08-12 18:12:00,
2013-08-12 11:27:00,77.9,33.6,30.18,SW,216,2.0,6.0,20,0.00,,,0.00,WeatherDisplay:10.37,2013-08-12 18:27:00,
2013-08-12 11:32:00,78.1,33.7,30.18,SW,230,5.0,6.0,20,0.00,,,0.00,WeatherDisplay:10.37,2013-08-12 18:32:00,
2013-08-12 11:42:00,78.3,33.9,30.18,SW,234,3.0,8.0,20,0.00,,,0.00,WeatherDisplay:10.37,2013-08-12 18:42:00,
2013-08-12 11:47:00,78.1,31.1,30.18,SW,217,2.0,6.0,18,0.00,,,0.00,WeatherDisplay:10.37,2013-08-12 18:47:00,
2013-08-12 11:52:00,77.8,30.9,30.18,SW,231,6.0,12.0,18,0.00,,,0.00,WeatherDisplay:10.37,2013-08-12 18:52:00,
2013-08-12 12:02:00,77.6,30.8,30.18,WNW,286,2.0,6.0,18,0.00,,,0.00,WeatherDisplay:10.37,2013-08-12 19:02:00,
2013-08-12 12:07:00,78.0,32.4,30.18,WNW,293,3.0,8.0,19,0.00,,,0.00,WeatherDisplay:10.37,2013-08-12 19:07:00,
2013-08-12 12:12:00,77.9,30.9,30.18,WSW,252,6.0,8.0,18,0.00,,,0.00,WeatherDisplay:10.37,2013-08-12 19:12:00,
2013-08-12 12:17:00,77.7,30.8,30.18,West,260,3.0,10.0,18,0.00,,,0.00,WeatherDisplay:10.37,2013-08-12 19:17:00,
2013-08-12 12:22:00,77.9,33.6,30.18,WNW,283,3.0,6.0,20,0.00,,,0.00,WeatherDisplay:10.37,2013-08-12 19:22:00,
2013-08-12 12:27:00,77.9,33.6,30.18,WNW,299,3.0,8.0,20,0.00,,,0.00,WeatherDisplay:10.37,2013-08-12 19:27:00,
2013-08-12 12:32:00,78.1,33.7,30.18,WNW,289,3.0,6.0,20,0.00,,,0.00,WeatherDisplay:10.37,2013-08-12 19:32:00,
2013-08-12 12:37:00,78.1,33.7,30.18,WSW,254,5.0,9.0,20,0.00,,,0.00,WeatherDisplay:10.37,2013-08-12 19:37:00,
2013-08-12 12:42:00,78.3,33.9,30.18,WSW,246,5.0,9.0,20,0.00,,,0.00,WeatherDisplay:10.37,2013-08-12 19:42:00,
2013-08-12 12:47:00,77.9,33.6,30.18,WSW,240,2.0,4.0,20,0.00,,,0.00,WeatherDisplay:10.37,2013-08-12 19:47:00,
2013-08-12 12:52:00,77.9,33.6,30.18,SW,229,2.0,3.0,20,0.00,,,0.00,WeatherDisplay:10.37,2013-08-12 19:52:00,
2013-08-12 13:02:00,77.9,33.6,30.18,SW,223,2.0,5.0,20,0.00,,,0.00,WeatherDisplay:10.37,2013-08-12 20:02:00,
2013-08-12 13:12:00,78.6,31.5,30.18,West,260,3.0,6.0,18,0.00,,,0.00,WeatherDisplay:10.37,2013-08-12 20:12:00,
2013-08-12 13:17:00,78.4,31.4,30.18,West,270,2.0,6.0,18,0.00,,,0.00,WeatherDisplay:10.37,2013-08-12 20:17:00,
2013-08-12 13:22:00,78.8,30.3,30.18,WSW,243,6.0,8.0,17,0.00,,,0.00,WeatherDisplay:10.37,2013-08-12 20:22:00,
2013-08-12 13:27:00,78.4,31.4,30.18,WSW,247,6.0,8.0,18,0.00,,,0.00,WeatherDisplay:10.37,2013-08-12 20:27:00,
2013-08-12 13:32:00,78.4,31.4,30.18,SW,228,2.0,6.0,18,0.00,,,0.00,WeatherDisplay:10.37,2013-08-12 20:32:00,
2013-08-12 13:37:00,78.7,30.2,30.18,SW,223,6.0,8.0,17,0.00,,,0.00,WeatherDisplay:10.37,2013-08-12 20:37:00,
2013-08-12 13:42:00,79.1,30.5,30.18,WSW,241,3.0,5.0,17,0.00,,,0.00,WeatherDisplay:10.37,2013-08-12 20:42:00,
2013-08-12 13:47:00,79.0,30.4,30.18,SSW,206,3.0,7.0,17,0.00,,,0.00,WeatherDisplay:10.37,2013-08-12 20:47:00,
2013-08-12 13:52:00,79.1,30.6,30.18,SSW,196,3.0,9.0,17,0.00,,,0.00,WeatherDisplay:10.37,2013-08-12 20:52:00,
2013-08-12 13:57:00,79.2,30.6,30.18,SW,217,3.0,9.0,17,0.00,,,0.00,WeatherDisplay:10.37,2013-08-12 20:57:00,
2013-08-12 14:02:00,79.2,30.6,30.18,SSW,210,3.0,5.0,17,0.00,,,0.00,WeatherDisplay:10.37,2013-08-12 21:02:00,
2013-08-12 14:07:00,79.3,30.7,30.18,SSW,205,3.0,6.0,17,0.00,,,0.00,WeatherDisplay:10.37,2013-08-12 21:07:00,
2013-08-12 14:12:00,79.2,30.6,30.18,SSW,210,3.0,6.0,17,0.00,,,0.00,WeatherDisplay:10.37,2013-08-12 21:12:00,
2013-08-12 14:17:00,79.3,30.7,30.18,SSW,202,2.0,8.0,17,0.00,,,0.00,WeatherDisplay:10.37,2013-08-12 21:17:00,
2013-08-12 14:22:00,79.5,30.9,30.18,SSW,197,0.0,6.0,17,0.00,,,0.00,WeatherDisplay:10.37,2013-08-12 21:22:00,
2013-08-12 14:27:00,79.5,30.9,30.18,SSW,196,2.0,6.0,17,0.00,,,0.00,WeatherDisplay:10.37,2013-08-12 21:27:00,
2013-08-12 14:32:00,79.4,30.7,30.18,SSW,203,2.0,6.0,17,0.00,,,0.00,WeatherDisplay:10.37,2013-08-12 21:32:00,
2013-08-12 14:42:00,80.4,31.6,30.18,WNW,296,6.0,8.0,17,0.00,,,0.00,WeatherDisplay:10.37,2013-08-12 21:42:00,
2013-08-12 14:47:00,80.2,31.4,30.18,NNW,339,5.0,6.0,17,0.00,,,0.00,WeatherDisplay:10.37,2013-08-12 21:47:00,
2013-08-12 14:52:00,79.7,31.0,30.18,WNW,298,3.0,6.0,17,0.00,,,0.00,WeatherDisplay:10.37,2013-08-12 21:52:00,
2013-08-12 14:57:00,79.5,30.9,30.18,WSW,245,2.0,6.0,17,0.00,,,0.00,WeatherDisplay:10.37,2013-08-12 21:57:00,
2013-08-12 15:02:00,79.3,30.7,30.18,WSW,237,5.0,8.0,17,0.00,,,0.00,WeatherDisplay:10.37,2013-08-12 22:02:00,
2013-08-12 15:07:00,79.7,31.0,30.18,WSW,252,6.0,8.0,17,0.00,,,0.00,WeatherDisplay:10.37,2013-08-12 22:07:00,
2013-08-12 15:12:00,79.9,31.2,30.17,WSW,258,3.0,5.0,17,0.00,,,0.00,WeatherDisplay:10.37,2013-08-12 22:12:00,
2013-08-12 15:17:00,79.6,31.0,30.15,SW,232,2.0,5.0,17,0.00,,,0.00,WeatherDisplay:10.37,2013-08-12 22:17:00,
2013-08-12 15:22:00,78.9,30.4,30.15,SE,135,3.0,7.0,17,0.00,,,0.00,WeatherDisplay:10.37,2013-08-12 22:22:00,
2013-08-12 15:32:00,78.2,31.2,30.15,West,262,0.0,6.0,18,0.00,,,0.00,WeatherDisplay:10.37,2013-08-12 22:32:00,
2013-08-12 15:37:00,77.7,30.8,30.15,SW,231,0.0,4.0,18,0.00,,,0.00,WeatherDisplay:10.37,2013-08-12 22:37:00,
2013-08-12 15:42:00,77.8,30.9,30.15,SW,230,7.0,12.0,18,0.00,,,0.00,WeatherDisplay:10.37,2013-08-12 22:42:00,
2013-08-12 15:52:00,77.9,31.0,30.15,WSW,244,6.0,8.0,18,0.00,,,0.00,WeatherDisplay:10.37,2013-08-12 22:52:00,
2013-08-12 15:57:00,77.3,30.5,30.15,South,188,0.0,4.0,18,0.00,,,0.00,WeatherDisplay:10.37,2013-08-12 22:57:00,
2013-08-12 16:02:00,76.1,29.5,30.15,NE,47,3.0,6.0,18,0.00,,,0.00,WeatherDisplay:10.37,2013-08-12 23:02:00,
2013-08-12 16:07:00,76.7,30.0,30.15,WNW,291,3.0,6.0,18,0.00,,,0.00,WeatherDisplay:10.37,2013-08-12 23:07:00,
2013-08-12 16:12:00,77.2,30.4,30.15,WSW,253,2.0,4.0,18,0.00,,,0.00,WeatherDisplay:10.37,2013-08-12 23:12:00,
2013-08-12 16:17:00,77.0,30.2,30.15,SSW,194,0.0,6.0,18,0.00,,,0.00,WeatherDisplay:10.37,2013-08-12 23:17:00,
2013-08-12 16:22:00,76.9,30.1,30.15,SSW,206,5.0,6.0,18,0.00,,,0.00,WeatherDisplay:10.37,2013-08-12 23:22:00,
2013-08-12 16:32:00,76.5,29.8,30.15,SSW,202,0.0,5.0,18,0.00,,,0.00,WeatherDisplay:10.37,2013-08-12 23:32:00,
2013-08-12 16:37:00,75.6,29.0,30.15,NNE,20,0.0,5.0,18,0.00,,,0.00,WeatherDisplay:10.37,2013-08-12 23:37:00,
2013-08-12 16:42:00,75.6,29.0,30.15,WSW,256,3.0,6.0,18,0.00,,,0.00,WeatherDisplay:10.37,2013-08-12 23:42:00,
2013-08-12 16:47:00,75.7,29.2,30.15,WSW,245,5.0,10.0,18,0.00,,,0.00,WeatherDisplay:10.37,2013-08-12 23:47:00,
2013-08-12 16:52:00,75.6,29.1,30.15,SW,235,2.0,8.0,18,0.00,,,0.00,WeatherDisplay:10.37,2013-08-12 23:52:00,
2013-08-12 16:57:00,75.3,28.9,30.15,SW,217,2.0,6.0,18,0.00,,,0.00,WeatherDisplay:10.37,2013-08-12 23:57:00,
2013-08-12 17:02:00,75.4,28.9,30.15,SW,231,3.0,6.0,18,0.00,,,0.00,WeatherDisplay:10.37,2013-08-13 00:02:00,
2013-08-12 17:07:00,75.3,28.8,30.15,WSW,248,5.0,6.0,18,0.00,,,0.00,WeatherDisplay:10.37,2013-08-13 00:07:00,
2013-08-12 17:12:00,75.2,28.8,30.15,WSW,244,5.0,9.0,18,0.00,,,0.00,WeatherDisplay:10.37,2013-08-13 00:12:00,
2013-08-12 17:17:00,75.0,28.6,30.15,SW,227,3.0,9.0,18,0.00,,,0.00,WeatherDisplay:10.37,2013-08-13 00:17:00,
2013-08-12 17:22:00,74.8,28.5,30.15,SW,223,2.0,10.0,18,0.00,,,0.00,WeatherDisplay:10.37,2013-08-13 00:22:00,
2013-08-12 17:27:00,74.5,28.2,30.15,SW,226,1.0,6.0,18,0.00,,,0.00,WeatherDisplay:10.37,2013-08-13 00:27:00,
2013-08-12 17:32:00,74.3,28.0,30.15,SW,232,5.0,6.0,18,0.00,,,0.00,WeatherDisplay:10.37,2013-08-13 00:32:00,
2013-08-12 17:37:00,74.1,31.7,30.15,SW,234,3.0,6.0,21,0.00,,,0.00,WeatherDisplay:10.37,2013-08-13 00:37:00,
2013-08-12 17:42:00,73.8,31.4,30.15,SW,228,5.0,6.0,21,0.00,,,0.00,WeatherDisplay:10.37,2013-08-13 00:42:00,
2013-08-12 17:47:00,73.2,30.9,30.15,SW,218,2.0,6.0,21,0.00,,,0.00,WeatherDisplay:10.37,2013-08-13 00:47:00,
2013-08-12 17:52:00,72.8,30.5,30.15,SSW,209,0.0,6.0,21,0.00,,,0.00,WeatherDisplay:10.37,2013-08-13 00:52:00,
2013-08-12 17:57:00,71.6,29.6,30.15,SW,226,0.0,0.0,21,0.00,,,0.00,WeatherDisplay:10.37,2013-08-13 00:57:00,
2013-08-12 18:02:00,71.4,30.6,30.15,WSW,251,0.0,0.0,22,0.00,,,0.00,WeatherDisplay:10.37,2013-08-13 01:02:00,
2013-08-12 18:07:00,70.9,30.2,30.15,SW,232,0.0,0.0,22,0.00,,,0.00,WeatherDisplay:10.37,2013-08-13 01:07:00,
2013-08-12 18:12:00,70.9,30.1,30.15,SW,233,5.0,6.0,22,0.00,,,0.00,WeatherDisplay:10.37,2013-08-13 01:12:00,
2013-08-12 18:22:00,71.2,29.3,30.15,WSW,240,3.0,6.0,21,0.00,,,0.00,WeatherDisplay:10.37,2013-08-13 01:22:00,
2013-08-12 18:27:00,71.2,26.8,30.15,SW,223,3.0,6.0,19,0.00,,,0.00,WeatherDisplay:10.37,2013-08-13 01:27:00,
2013-08-12 18:32:00,71.2,26.8,30.15,WSW,240,2.0,6.0,19,0.00,,,0.00,WeatherDisplay:10.37,2013-08-13 01:32:00,
2013-08-12 18:42:00,71.2,30.4,30.15,SW,234,2.0,6.0,22,0.00,,,0.00,WeatherDisplay:10.37,2013-08-13 01:42:00,
2013-08-12 18:47:00,70.8,30.0,30.15,SW,234,2.0,3.0,22,0.00,,,0.00,WeatherDisplay:10.37,2013-08-13 01:47:00,
2013-08-12 18:52:00,70.2,29.6,30.15,SW,228,0.0,4.0,22,0.00,,,0.00,WeatherDisplay:10.37,2013-08-13 01:52:00,
2013-08-12 18:57:00,69.8,29.2,30.15,WSW,250,2.0,6.0,22,0.00,,,0.00,WeatherDisplay:10.37,2013-08-13 01:57:00,
2013-08-12 19:02:00,69.3,28.8,30.15,WSW,247,0.0,2.0,22,0.00,,,0.00,WeatherDisplay:10.37,2013-08-13 02:02:00,
2013-08-12 19:07:00,68.5,28.2,30.15,WSW,241,0.0,4.0,22,0.00,,,0.00,WeatherDisplay:10.37,2013-08-13 02:07:00,
2013-08-12 19:12:00,68.4,28.0,30.15,WNW,285,0.0,3.0,22,0.00,,,0.00,WeatherDisplay:10.37,2013-08-13 02:12:00,
2013-08-12 19:22:00,67.1,29.1,30.15,NW,306,0.0,0.0,24,0.00,,,0.00,WeatherDisplay:10.37,2013-08-13 02:22:00,
2013-08-12 19:27:00,66.6,28.6,30.15,North,4,0.0,2.0,24,0.00,,,0.00,WeatherDisplay:10.37,2013-08-13 02:27:00,
2013-08-12 19:32:00,66.2,29.3,30.15,SSE,160,0.0,3.0,25,0.00,,,0.00,WeatherDisplay:10.37,2013-08-13 02:32:00,
2013-08-12 19:37:00,66.2,30.3,30.15,SW,236,2.0,4.0,26,0.00,,,0.00,WeatherDisplay:10.37,2013-08-13 02:37:00,
2013-08-12 19:42:00,65.8,30.9,30.17,WSW,251,0.0,0.0,27,0.00,,,0.00,WeatherDisplay:10.37,2013-08-13 02:42:00,
2013-08-12 19:47:00,65.5,30.6,30.18,WSW,253,0.0,0.0,27,0.00,,,0.00,WeatherDisplay:10.37,2013-08-13 02:47:00,
2013-08-12 19:52:00,64.7,30.8,30.18,WSW,253,0.0,0.0,28,0.00,,,0.00,WeatherDisplay:10.37,2013-08-13 02:52:00,
2013-08-12 19:57:00,64.2,32.1,30.18,WSW,253,0.0,0.0,30,0.00,,,0.00,WeatherDisplay:10.37,2013-08-13 02:57:00,
2013-08-12 20:02:00,63.6,31.6,30.18,WSW,253,0.0,0.0,30,0.00,,,0.00,WeatherDisplay:10.37,2013-08-13 03:02:00,
2013-08-12 20:07:00,63.1,30.3,30.18,WSW,253,0.0,0.0,29,0.00,,,0.00,WeatherDisplay:10.37,2013-08-13 03:07:00,
2013-08-12 20:12:00,63.0,30.2,30.18,WSW,253,0.0,0.0,29,0.00,,,0.00,WeatherDisplay:10.37,2013-08-13 03:12:00,
2013-08-12 20:22:00,62.3,29.6,30.18,WSW,258,0.0,0.0,29,0.00,,,0.00,WeatherDisplay:10.37,2013-08-13 03:22:00,
2013-08-12 20:27:00,62.1,29.4,30.18,West,271,0.0,0.0,29,0.00,,,0.00,WeatherDisplay:10.37,2013-08-13 03:27:00,
2013-08-12 20:32:00,61.7,29.1,30.18,West,279,0.0,0.0,29,0.00,,,0.00,WeatherDisplay:10.37,2013-08-13 03:32:00,
2013-08-12 20:37:00,61.7,29.1,30.18,West,279,0.0,0.0,29,0.00,,,0.00,WeatherDisplay:10.37,2013-08-13 03:37:00,
2013-08-12 20:42:00,61.3,28.8,30.18,West,279,0.0,0.0,29,0.00,,,0.00,WeatherDisplay:10.37,2013-08-13 03:42:00,
2013-08-12 20:47:00,61.3,28.7,30.18,West,279,0.0,0.0,29,0.00,,,0.00,WeatherDisplay:10.37,2013-08-13 03:47:00,
2013-08-12 20:52:00,61.0,28.5,30.18,West,279,0.0,0.0,29,0.00,,,0.00,WeatherDisplay:10.37,2013-08-13 03:52:00,
2013-08-12 21:02:00,60.8,28.3,30.18,West,279,0.0,0.0,29,0.00,,,0.00,WeatherDisplay:10.37,2013-08-13 04:02:00,
2013-08-12 21:07:00,60.8,28.3,30.18,West,279,0.0,0.0,29,0.00,,,0.00,WeatherDisplay:10.37,2013-08-13 04:07:00,
2013-08-12 21:12:00,60.7,28.2,30.18,West,279,0.0,0.0,29,0.00,,,0.00,WeatherDisplay:10.37,2013-08-13 04:12:00,
2013-08-12 21:17:00,60.6,27.3,30.18,West,279,0.0,0.0,28,0.00,,,0.00,WeatherDisplay:10.37,2013-08-13 04:17:00,
2013-08-12 21:22:00,60.4,27.1,30.18,West,279,0.0,0.0,28,0.00,,,0.00,WeatherDisplay:10.37,2013-08-13 04:22:00,
2013-08-12 21:27:00,60.4,27.1,30.18,West,279,0.0,0.0,28,0.00,,,0.00,WeatherDisplay:10.37,2013-08-13 04:27:00,
2013-08-12 21:32:00,60.6,27.3,30.18,West,279,0.0,0.0,28,0.00,,,0.00,WeatherDisplay:10.37,2013-08-13 04:32:00,
2013-08-12 21:42:00,60.4,27.1,30.18,West,279,0.0,0.0,28,0.00,,,0.00,WeatherDisplay:10.37,2013-08-13 04:42:00,
2013-08-12 21:47:00,60.3,27.0,30.18,West,279,0.0,0.0,28,0.00,,,0.00,WeatherDisplay:10.37,2013-08-13 04:47:00,
2013-08-12 21:52:00,60.1,26.0,30.18,West,279,0.0,0.0,27,0.00,,,0.00,WeatherDisplay:10.37,2013-08-13 04:52:00,
2013-08-12 22:02:00,59.9,24.9,30.18,West,279,0.0,0.0,26,0.00,,,0.00,WeatherDisplay:10.37,2013-08-13 05:02:00,
2013-08-12 22:07:00,59.7,24.7,30.18,West,279,0.0,0.0,26,0.00,,,0.00,WeatherDisplay:10.37,2013-08-13 05:07:00,
2013-08-12 22:12:00,59.4,24.4,30.18,West,279,0.0,0.0,26,0.00,,,0.00,WeatherDisplay:10.37,2013-08-13 05:12:00,
2013-08-12 22:17:00,58.9,24.1,30.18,West,279,0.0,0.0,26,0.00,,,0.00,WeatherDisplay:10.37,2013-08-13 05:17:00,
2013-08-12 22:22:00,58.6,23.8,30.18,West,279,0.0,0.0,26,0.00,,,0.00,WeatherDisplay:10.37,2013-08-13 05:22:00,
2013-08-12 22:27:00,58.5,23.7,30.18,West,279,0.0,0.0,26,0.00,,,0.00,WeatherDisplay:10.37,2013-08-13 05:27:00,
2013-08-12 22:32:00,58.5,23.7,30.18,West,279,0.0,0.0,26,0.00,,,0.00,WeatherDisplay:10.37,2013-08-13 05:32:00,
2013-08-12 22:37:00,58.5,23.7,30.18,West,279,0.0,0.0,26,0.00,,,0.00,WeatherDisplay:10.37,2013-08-13 05:37:00,
2013-08-12 22:42:00,58.3,23.5,30.18,West,279,0.0,0.0,26,0.00,,,0.00,WeatherDisplay:10.37,2013-08-13 05:42:00,
2013-08-12 22:47:00,58.5,23.7,30.18,West,279,0.0,0.0,26,0.00,,,0.00,WeatherDisplay:10.37,2013-08-13 05:47:00,
2013-08-12 22:52:00,58.3,23.5,30.18,West,279,0.0,0.0,26,0.00,,,0.00,WeatherDisplay:10.37,2013-08-13 05:52:00,
2013-08-12 22:57:00,57.9,23.2,30.18,West,279,0.0,0.0,26,0.00,,,0.00,WeatherDisplay:10.37,2013-08-13 05:57:00,
2013-08-12 23:02:00,57.7,23.0,30.18,West,279,0.0,0.0,26,0.00,,,0.00,WeatherDisplay:10.37,2013-08-13 06:02:00,
2013-08-12 23:07:00,57.6,22.9,30.18,West,279,0.0,0.0,26,0.00,,,0.00,WeatherDisplay:10.37,2013-08-13 06:07:00,
2013-08-12 23:12:00,57.6,23.8,30.18,West,279,0.0,0.0,27,0.00,,,0.00,WeatherDisplay:10.37,2013-08-13 06:12:00,
2013-08-12 23:17:00,57.3,23.6,30.18,West,279,0.0,0.0,27,0.00,,,0.00,WeatherDisplay:10.37,2013-08-13 06:17:00,
2013-08-12 23:22:00,57.2,23.5,30.18,West,279,0.0,0.0,27,0.00,,,0.00,WeatherDisplay:10.37,2013-08-13 06:22:00,
2013-08-12 23:27:00,57.0,23.3,30.20,West,279,0.0,0.0,27,0.00,,,0.00,WeatherDisplay:10.37,2013-08-13 06:27:00,
2013-08-12 23:32:00,56.5,22.9,30.21,West,279,0.0,0.0,27,0.00,,,0.00,WeatherDisplay:10.37,2013-08-13 06:32:00,
2013-08-12 23:37:00,56.1,22.6,30.21,West,279,0.0,0.0,27,0.00,,,0.00,WeatherDisplay:10.37,2013-08-13 06:37:00,
2013-08-12 23:42:00,56.3,22.7,30.21,West,279,0.0,0.0,27,0.00,,,0.00,WeatherDisplay:10.37,2013-08-13 06:42:00,
2013-08-12 23:47:00,55.9,22.4,30.21,West,279,0.0,0.0,27,0.00,,,0.00,WeatherDisplay:10.37,2013-08-13 06:47:00,
2013-08-12 23:52:00,55.9,22.4,30.21,West,279,0.0,0.0,27,0.00,,,0.00,WeatherDisplay:10.37,2013-08-13 06:52:00,
2013-08-12 23:57:00,55.9,22.4,30.21,West,279,0.0,0.0,27,0.00,,,0.00,WeatherDisplay:10.37,2013-08-13 06:57:00,